Flag for U.S.A. Weather past 2 weeks in Mason, Ohio, U.S.A.

Now
13 °F

Clear.


Feels Like: 13 °F
Forecast: 20 / 40 °F
Wind: No wind

Location: Butler County Regional Airport

Current Time: Jan 31, 2015 at 6:51:47 AM

Latest Report: Jan 31, 2015 at 5:53 AM


Visibility: 9 mi

Pressure: 30.41 "Hg

Humidity: 88%

Dew point: 10 °F

Location of MasonLocation

Historic Weather in Mason — Graph

°F

Mason temperature yesterday

Maximum temperature yesterday: 34 °F (at 12:53 AM)
Minimum temperature yesterday: 15 °F (at 11:53 PM)
Average temperature yesterday: 27 °F

Past Weeks' High & Low Weather Summary

 TemperatureHumidityPressure
High54 °F (Jan 17, 2:53 PM)97% (Jan 18, 5:53 AM)30.51 "Hg (Jan 18, 5:53 AM)
Low9 °F (Jan 28, 6:53 AM)37% (Jan 17, 3:53 PM)29.69 "Hg (Jan 25, 3:53 PM)
Average32 °F75%30.08 "Hg
* Reported Jan 16 5:53 AM — Jan 31 5:53 AM, Mason, Weather by CustomWeather, © 2014

Note: Actual official high and low records may vary slightly from our data, if they occured in-between our weather recording intervals... More about our weather records

Advertising

Mason weather history for previous 24 hours

 ConditionsComfort  
Time TempWeatherWind HumidityBarometerVisibility
5:53 AM
Jan 31
13 °FClear.No wind88%30.41 "Hg9 mi
4:53 AM13 °FClear.No wind84%30.42 "Hg8 mi
3:53 AM13 °FClear.No wind92%30.44 "Hg8 mi
2:53 AM14 °FClear.No wind84%30.46 "Hg8 mi
1:53 AM14 °FClear.No wind92%30.46 "Hg9 mi
12:53 AM15 °FClear.No wind87%30.47 "Hg9 mi
11:53 PM
Jan 30
15 °FClear.No wind87%30.48 "Hg7 mi
10:53 PM16 °FClear.No wind87%30.49 "Hg10 mi
9:53 PM17 °FClear.No wind88%30.50 "Hg10 mi
8:53 PM18 °FClear.No wind88%30.50 "Hg10 mi
7:53 PM20 °FClear.No wind82%30.50 "Hg10 mi
6:53 PM25 °FClear.5 mph66%30.50 "Hg10 mi
5:53 PM27 °FSunny.5 mph61%30.49 "Hg10 mi
4:53 PM29 °FPassing clouds.9 mph56%30.49 "Hg10 mi
3:53 PM30 °FLight snow. Scattered clouds.8 mph54%30.49 "Hg9 mi
2:53 PM28 °FLight snow. Partly sunny.12 mph58%30.48 "Hg9 mi
1:53 PM27 °FLight snow. Partly sunny.14 mph58%30.50 "Hg9 mi
12:53 PM28 °FLight snow. Partly sunny.13 mph56%30.50 "Hg9 mi
11:53 AM28 °FLight snow. Scattered clouds.15 mph53%30.51 "Hg9 mi
10:53 AM26 °FLight snow. Overcast.14 mph60%30.50 "Hg9 mi
9:53 AM26 °FLight snow. Overcast.13 mph66%30.47 "Hg9 mi
8:53 AM27 °FLight snow. Overcast.10 mph58%30.44 "Hg9 mi
7:53 AM28 °FLight snow. Partly sunny.12 mph61%30.41 "Hg9 mi
6:53 AM30 °FLight snow. Overcast.13 mph66%30.37 "Hg9 mi
Weather by CustomWeather, © 2014

See weather overviewHow to use our weather pages